Location: ???????
(55.8860°N, 38.0932°E)
Time: 01:22:46
(UTC+00:00)

Cosmos 2360 Rocket - Pass Details

Date: 14 April 2024
Orbit: 832 x 845 km, 71.0° (Epoch: 18 May)

Event Time Altitude Azimuth Distance (km) Brightness Sun altitude
Exits shadow 00:10:09 24° 246° (WSW) 1,683 3.2 -16.5°
Maximum altitude 00:13:26 53° 313° (NW) 1,029 2.6 -16.2°
Drops below altitude 10° 00:18:58 10° 31° (NNE) 2,467 5.9 -15.6°
Sets 00:21:30 0° 36° (NE) 3,407 7.1 -15.4°
